Weather in Jan Mayen

Norway     71°01′41″N   8°21′24″W
В апреле 2022 года жителям России запретили посещать сайт meteo.paraplan.net по решению Генеральной прокуратуры. Аудитория сайта уменьшилась в 10 раз. Владельцы сайта не видят смысла в поддержке погодного сервера в таких условиях. Сайт будет закрыт в октябре.
temp.,
°C
wind,
m/s
gust,
m/s
humid.,
%
clouds,
%
prec.,
mm/h
press.,
hPa
HPBL,
m
25 september, sun
sun2523:00+6ssw91298100 3.2 985272
02:00+6s81199100 8.7 977213
05:00+6s81199100 8.6 970212
08:00+6s4699100 9.8 96579
11:00+6s22100100 2.5 96417
14:00+6nnw11100100 3.4 96610
17:00+6sse11100100 1.1 96910
20:00+6ne339999 1.3 97320
26 september, mon
mon2623:00+6nne569694 0.2 97856
02:00+6nne559991 0.7 98271
05:00+6ne669739 0.1 98677
08:00+6nne46945 0.1 99159
11:00+6n349747 0.4 99533
14:00+6nne4498100 0.4 99847
17:00+6ne5697100 0.0 100167
20:00+6n4497100 0.0 100447
27 september, tue
tue2723:00+5n4497100 0.1 100640
02:00+5nne3497100 0.6 100737
05:00+5nne33967 0.3 100829
08:00+5n339614 0.3 100935
11:00+5ne44965 0.0 101038
14:00+5ne33948 0.0 101028
17:00+5ne22955 0.0 101125
20:00+6ene22955 0.0 101220
28 september, wed
wed2823:00+6ene22935 0.0 101216
02:00+6ene22935 0.0 101216
05:00+6ene22945 0.0 101216
08:00+6ene229381 0.0 101215
11:00+6ene2292100 0.0 101215
14:00+6ene2292100 0.0 101218
17:00+6ene3294100 0.0 101219
20:00+6ene3398100 0.2 101225
29 september, thu
thu2923:00+6ene3397100 0.0 101127
02:00+6ene329777 0.0 101021
05:00+6e229822 0.0 100915
08:00+6e2299100 0.0 100917
11:00+6ese2299100 0.1 100815
14:00+6sse3398100 0.2 100825
17:00+6sse3492100 0.1 100840
20:00+6se3390100 0.1 100729